This is the latest recevied weather packets stored in our database for station/object KC1DMA. If no packets are shown the sender has not sent any weather packets the latest 10 day(s).
| Time | Temp. | Humidity | Pressure | Rain* | Wind** | Luminosity | Snow |
|---|---|---|---|---|---|---|---|
| 1777982177 | 13.89° C | 81% | 1013.1 hPa | - | - | 231 W/m² | - |
| 1777981875 | 13.89° C | 82% | 1013.1 hPa | - | - | 216 W/m² | - |
| 1777981572 | 13.89° C | 83% | 1013 hPa | - | - | 205 W/m² | - |
| 1777981268 | 13.33° C | 84% | 1013.1 hPa | - | - | 185 W/m² | - |
| 1777980965 | 11.11° C | 90% | 1013.2 hPa | - | - | 34 W/m² | - |
| 1777980661 | 11.11° C | 90% | 1013.2 hPa | - | - | 34 W/m² | - |
| 1777980358 | 11.11° C | 90% | 1012.9 hPa | - | - | 34 W/m² | - |
| 1777980057 | 11.11° C | 90% | 1012.9 hPa | - | - | 34 W/m² | - |
| 1777979755 | 11.11° C | 90% | 1013.2 hPa | - | - | 34 W/m² | - |
| 1777979452 | 11.11° C | 90% | 1012.8 hPa | - | - | 34 W/m² | - |
| 1777979149 | 11.11° C | 90% | 1012.9 hPa | - | - | 34 W/m² | - |
| 1777978845 | 11.11° C | 90% | 1012.7 hPa | - | - | 34 W/m² | - |
| 1777978542 | 11.11° C | 90% | 1012.6 hPa | - | - | 34 W/m² | - |
| 1777978238 | 11.11° C | 90% | 1012.5 hPa | - | - | 34 W/m² | - |
| 1777977935 | 11.11° C | 90% | 1012.6 hPa | - | - | 34 W/m² | - |
| 1777977632 | 11.11° C | 90% | 1012.4 hPa | - | - | 34 W/m² | - |
| 1777977329 | 11.11° C | 90% | 1012.3 hPa | - | - | 33 W/m² | - |
| 1777977027 | 11.11° C | 90% | 1012.3 hPa | - | - | 23 W/m² | - |
| 1777976723 | 11.11° C | 90% | 1012.2 hPa | - | - | 23 W/m² | - |
| 1777976421 | 11.11° C | 90% | 1012.4 hPa | - | - | 21 W/m² | - |
| 1777976119 | 11.11° C | 90% | 1012.2 hPa | - | - | 17 W/m² | - |
| 1777975815 | 11.11° C | 90% | 1012 hPa | - | - | 14 W/m² | - |
| 1777975507 | 11.11° C | 90% | 1012.1 hPa | - | - | 12 W/m² | - |
| 1777975204 | 11.11° C | 90% | 1012.2 hPa | - | - | 10 W/m² | - |
| 1777974900 | 11.11° C | 90% | 1012.2 hPa | - | - | 7 W/m² | - |
* Rain since midnight (hover to see other rain measurements)
** Current wind speed in m/s (hover to see current wind gust speed)